SCP
0 0 0 0 0 0 0 0 0 0 0 0 0 0 -0 -0 0 0 0 0 0 0 0 -0 -0 -0 -0 -0 -0 -0 -0 -0 -0
0 0 0 0 0 0 0 0 0 0 0 0 0 0 -0 0 0 0 0 0 0 0 0 0 0 -0 -0 -0 -0 -0 -0 -0 -0
0 0 0 0 0 0 0 0 0 0 0 0 0 0 -0 0 0 0 0 0 0 0 0 0 0 0 -0 -0 -0 -0 -0 -0 -0
0 0 0 0 0 0 0 0 0 0 0 0 0 0 -0 0 0 0 0 0 0 0 0 0 0 0 0 -0 -0 -0 -0 -0 -0
0 0 0 0 0 0 0 0 0 0 0 0 0 0 -0 0 0 0 0 0 0 0 0 0 0 0 0 0 -0 -0 -0 -0 -0
0 0 0 0 0 0 0 0 0 0 0 0 0 -0 0 0 0 0 0 0 0 0 0 0 0 0 0 -0 -0 -0 -0 -0 -0
0 0 0 0 0 0 0 0 0 0 0 0 0 0 0 0 0 0 0 0 0 0 0 0 0 0 0 0 -0 -0 -0 -0 -0
0 1 1 0 0 0 0 0 0 0 0 0 0 0 0 0 0 0 0 0 0 0 0 0 0 0 0 0 0 -0 -0 -0 -0
0 0 0 0 0 0 0 0 0 0 0 0 0 0 0 0 0 0 0 0 0 0 0 0 0 0 0 0 0 0 -0 -0 0
0 0 0 0 0 0 0 0 0 0 0 0 0 0 0 0 0 0 0 0 0 0 0 0 0 0 0 0 0 0 0 0 0
0 0 0 0 0 0 0 0 0 0 0 0 0 0 0 0 0 0 0 0 0 0 0 0 0 0 0 0 0 0 0 0 0
0 0 1 0 0 0 0 0 0 0 0 0 0 0 0 0 0 0 0 0 0 0 0 0 0 0 0 0 0 0 0 0 0
0 0 0 0 0 0 0 0 0 0 0 0 0 0 0 0 0 0 0 0 0 0 0 0 0 0 0 0 0 0 0 0 0
0 0 0 1 1 0 0 0 0 0 0 0 0 0 0 0 0 0 0 0 0 0 0 0 0 0 0 0 0 0 0 0 0
1 1 1 1 1 0 0 0 0 0 0 0 0 0 0 0 0 0 0 0 0 0 0 0 0 0 0 0 0 0 0 0 0
1 1 0 0 0 0 0 0 0 0 0 0 0 0 0 0 0 0 0 0 0 0 0 0 0 0 0 0 0 0 0 0 0
1 0 0 0 0 0 0 0 0 0 0 0 0 0 0 0 0 0 0 0 0 0 0 0 0 0 0 0 0 0 0 0 0
0 0 0 0 0 0 0 0 0 0 0 0 0 0 0 0 0 0 0 0 0 0 0 0 0 0 0 0 0 0 0 0 0
1 0 0 0 0 0 0 0 0 0 0 0 0 0 0 0 0 0 0 0 0 0 0 0 0 0 0 0 0 0 0 0 0
1 0 0 0 0 0 0 0 0 0 0 0 0 0 0 0 0 0 0 0 0 0 0 0 0 0 0 0 0 0 0 0 0
Wind_Speed_500mb
11 9 4 5 7 9 9 10 11 12 17 20 24 24 25 29 28 29 30 30 29 29 27 28 27 31 41 46 54 55 59 64 61
14 14 10 6 4 6 7 8 10 10 13 17 22 25 27 23 27 25 27 29 30 35 25 25 26 27 37 43 46 51 56 61 64
16 15 13 11 6 5 7 7 7 8 9 12 18 23 28 24 26 26 26 28 30 30 30 33 33 32 29 36 42 45 50 56 61
19 18 16 13 9 7 7 7 6 7 6 7 12 18 25 22 25 23 23 24 29 36 36 31 35 37 30 31 34 40 45 49 55
20 19 18 16 13 9 8 8 6 6 6 5 8 14 26 21 22 22 24 31 33 28 27 38 39 37 42 39 37 36 38 43 51
22 19 20 19 17 11 9 8 7 7 6 4 5 14 11 16 18 17 27 23 21 19 24 26 27 32 34 36 35 32 36 38 45
22 24 21 20 20 18 14 11 10 9 7 3 4 5 9 12 14 15 26 25 21 23 25 28 31 30 33 34 39 43 45 44 42
22 24 23 22 26 21 20 16 12 13 12 9 5 4 5 8 9 13 19 20 20 24 20 20 20 21 30 32 38 43 44 50 49
24 22 21 25 27 25 23 17 16 13 13 9 7 3 1 3 6 8 14 17 18 23 20 22 21 26 25 31 36 39 46 51 52
24 23 24 28 27 27 26 22 19 16 14 11 9 7 5 3 1 4 8 11 14 18 17 20 21 19 23 30 36 38 41 45 48
26 26 27 28 28 24 22 21 20 17 13 12 12 11 12 8 6 4 4 5 9 8 13 16 15 19 22 25 32 36 38 43 45
29 32 32 30 29 22 19 18 17 14 14 13 14 13 12 12 13 9 6 5 2 3 8 11 14 16 20 25 28 32 35 38 40
30 30 30 20 23 21 19 18 15 14 14 15 13 14 13 17 14 13 11 9 7 1 4 8 12 17 15 21 25 30 32 34 36
25 22 23 22 22 21 18 16 14 13 13 13 10 11 11 15 15 14 13 13 12 8 6 6 9 10 13 18 21 24 28 31 32
22 21 21 20 22 20 19 18 17 13 11 15 16 14 16 17 19 13 16 17 19 13 10 10 10 10 10 12 15 21 23 27 28
30 26 25 22 19 18 18 16 16 18 14 12 16 20 22 19 23 20 19 19 17 17 12 12 11 13 11 13 15 15 17 20 24
34 31 27 23 21 21 21 21 20 19 17 12 14 12 14 17 21 22 23 21 20 23 21 18 16 17 18 17 10 10 12 16 18
37 33 31 28 26 23 22 23 22 23 23 22 12 10 15 11 17 22 23 20 19 24 24 26 27 21 22 18 13 10 6 10 13
41 37 35 32 28 25 25 24 20 20 22 25 23 15 8 7 4 4 9 14 13 16 17 12 26 28 27 26 21 11 9 6 7
45 41 37 30 24 23 22 19 17 17 16 16 15 19 16 18 11 6 6 6 10 6 20 15 19 36 35 37 31 22 14 10 7
Wind_Direction_500mb
189 200 163 101 98 114 112 105 91 73 63 51 49 59 53 50 35 28 26 27 30 39 31 42 39 40 43 35 34 35 37 34 34
192 200 192 172 140 136 132 127 102 80 63 53 51 55 55 46 36 27 34 28 36 35 51 43 49 48 49 40 37 36 39 41 37
203 200 206 194 182 172 166 147 113 97 75 52 51 48 54 35 33 30 25 42 37 42 41 44 41 48 52 50 43 39 41 44 44
202 205 208 209 195 200 192 171 144 132 95 55 54 47 46 45 44 41 30 40 44 41 40 41 41 35 47 51 50 45 44 48 48
214 206 208 214 210 211 193 185 169 162 139 66 52 47 46 41 46 39 42 54 53 42 39 46 41 41 42 46 52 52 50 50 50
223 215 215 214 209 213 205 197 193 180 165 113 65 56 50 49 54 47 50 49 51 38 38 55 46 37 46 46 47 53 55 53 58
217 223 215 221 217 216 220 213 198 173 186 161 86 61 58 49 57 39 44 51 47 26 46 52 48 47 45 51 50 52 53 55 52
217 222 212 217 217 214 215 216 199 195 184 189 174 122 75 41 52 32 45 49 35 27 45 51 58 50 51 50 59 59 56 61 58
229 220 211 214 215 208 206 200 208 204 194 197 186 168 175 79 72 359 45 45 45 26 38 37 51 58 55 56 59 59 61 63 63
228 226 218 223 222 219 219 219 218 197 191 198 216 197 217 198 82 263 34 41 52 37 43 36 58 53 56 67 64 60 59 61 65
225 230 228 225 224 232 231 223 212 204 200 212 225 223 220 218 214 219 310 41 53 47 31 47 58 50 64 66 69 68 67 63 64
229 230 230 229 235 230 217 213 200 209 218 225 232 231 225 236 211 212 195 289 17 54 51 48 56 68 60 68 67 70 69 66 69
234 231 232 217 213 211 203 203 205 211 222 231 232 241 235 232 223 217 213 240 206 148 129 69 77 79 74 79 75 69 67 69 68
226 220 220 206 210 210 205 206 199 208 222 226 234 235 235 230 228 233 243 247 235 214 188 140 104 110 103 91 86 78 73 69 66
202 194 188 185 197 205 208 209 210 198 206 227 230 244 243 245 225 232 246 256 246 239 203 182 153 137 126 101 80 81 74 74 71
199 198 190 188 193 206 216 224 215 224 216 231 251 244 249 246 242 243 244 259 252 236 226 211 191 169 144 129 111 94 91 87 76
207 205 205 207 208 222 230 237 240 243 236 233 246 254 255 236 244 244 255 263 257 240 244 243 219 189 170 153 146 125 107 96 81
211 211 214 217 225 231 236 239 242 246 239 221 235 247 251 203 243 246 250 253 248 240 238 244 239 215 198 188 176 159 129 110 89
213 215 217 221 226 228 235 236 237 235 228 224 225 238 271 263 203 215 239 252 256 243 235 239 238 223 215 210 198 187 172 158 125
217 216 215 213 215 213 224 228 219 222 227 214 221 236 257 260 267 247 257 244 224 244 193 242 236 238 225 218 211 202 188 193 186
Wind_Speed_850mb
11 9 4 5 7 9 9 10 11 12 17 20 24 24 25 29 28 29 30 30 29 29 27 28 27 31 41 46 54 55 59 64 61
14 14 10 6 4 6 7 8 10 10 13 17 22 25 27 23 27 25 27 29 30 35 25 25 26 27 37 43 46 51 56 61 64
16 15 13 11 6 5 7 7 7 8 9 12 18 23 28 24 26 26 26 28 30 30 30 33 33 32 29 36 42 45 50 56 61
19 18 16 13 9 7 7 7 6 7 6 7 12 18 25 22 25 23 23 24 29 36 36 31 35 37 30 31 34 40 45 49 55
20 19 18 16 13 9 8 8 6 6 6 5 8 14 26 21 22 22 24 31 33 28 27 38 39 37 42 39 37 36 38 43 51
22 19 20 19 17 11 9 8 7 7 6 4 5 14 11 16 18 17 27 23 21 19 24 26 27 32 34 36 35 32 36 38 45
22 24 21 20 20 18 14 11 10 9 7 3 4 5 9 12 14 15 26 25 21 23 25 28 31 30 33 34 39 43 45 44 42
22 24 23 22 26 21 20 16 12 13 12 9 5 4 5 8 9 13 19 20 20 24 20 20 20 21 30 32 38 43 44 50 49
24 22 21 25 27 25 23 17 16 13 13 9 7 3 1 3 6 8 14 17 18 23 20 22 21 26 25 31 36 39 46 51 52
24 23 24 28 27 27 26 22 19 16 14 11 9 7 5 3 1 4 8 11 14 18 17 20 21 19 23 30 36 38 41 45 48
26 26 27 28 28 24 22 21 20 17 13 12 12 11 12 8 6 4 4 5 9 8 13 16 15 19 22 25 32 36 38 43 45
29 32 32 30 29 22 19 18 17 14 14 13 14 13 12 12 13 9 6 5 2 3 8 11 14 16 20 25 28 32 35 38 40
30 30 30 20 23 21 19 18 15 14 14 15 13 14 13 17 14 13 11 9 7 1 4 8 12 17 15 21 25 30 32 34 36
25 22 23 22 22 21 18 16 14 13 13 13 10 11 11 15 15 14 13 13 12 8 6 6 9 10 13 18 21 24 28 31 32
22 21 21 20 22 20 19 18 17 13 11 15 16 14 16 17 19 13 16 17 19 13 10 10 10 10 10 12 15 21 23 27 28
30 26 25 22 19 18 18 16 16 18 14 12 16 20 22 19 23 20 19 19 17 17 12 12 11 13 11 13 15 15 17 20 24
34 31 27 23 21 21 21 21 20 19 17 12 14 12 14 17 21 22 23 21 20 23 21 18 16 17 18 17 10 10 12 16 18
37 33 31 28 26 23 22 23 22 23 23 22 12 10 15 11 17 22 23 20 19 24 24 26 27 21 22 18 13 10 6 10 13
41 37 35 32 28 25 25 24 20 20 22 25 23 15 8 7 4 4 9 14 13 16 17 12 26 28 27 26 21 11 9 6 7
45 41 37 30 24 23 22 19 17 17 16 16 15 19 16 18 11 6 6 6 10 6 20 15 19 36 35 37 31 22 14 10 7
Wind_Direction_850mb
189 200 163 101 98 114 112 105 91 73 63 51 49 59 53 50 35 28 26 27 30 39 31 42 39 40 43 35 34 35 37 34 34
192 200 192 172 140 136 132 127 102 80 63 53 51 55 55 46 36 27 34 28 36 35 51 43 49 48 49 40 37 36 39 41 37
203 200 206 194 182 172 166 147 113 97 75 52 51 48 54 35 33 30 25 42 37 42 41 44 41 48 52 50 43 39 41 44 44
202 205 208 209 195 200 192 171 144 132 95 55 54 47 46 45 44 41 30 40 44 41 40 41 41 35 47 51 50 45 44 48 48
214 206 208 214 210 211 193 185 169 162 139 66 52 47 46 41 46 39 42 54 53 42 39 46 41 41 42 46 52 52 50 50 50
223 215 215 214 209 213 205 197 193 180 165 113 65 56 50 49 54 47 50 49 51 38 38 55 46 37 46 46 47 53 55 53 58
217 223 215 221 217 216 220 213 198 173 186 161 86 61 58 49 57 39 44 51 47 26 46 52 48 47 45 51 50 52 53 55 52
217 222 212 217 217 214 215 216 199 195 184 189 174 122 75 41 52 32 45 49 35 27 45 51 58 50 51 50 59 59 56 61 58
229 220 211 214 215 208 206 200 208 204 194 197 186 168 175 79 72 359 45 45 45 26 38 37 51 58 55 56 59 59 61 63 63
228 226 218 223 222 219 219 219 218 197 191 198 216 197 217 198 82 263 34 41 52 37 43 36 58 53 56 67 64 60 59 61 65
225 230 228 225 224 232 231 223 212 204 200 212 225 223 220 218 214 219 310 41 53 47 31 47 58 50 64 66 69 68 67 63 64
229 230 230 229 235 230 217 213 200 209 218 225 232 231 225 236 211 212 195 289 17 54 51 48 56 68 60 68 67 70 69 66 69
234 231 232 217 213 211 203 203 205 211 222 231 232 241 235 232 223 217 213 240 206 148 129 69 77 79 74 79 75 69 67 69 68
226 220 220 206 210 210 205 206 199 208 222 226 234 235 235 230 228 233 243 247 235 214 188 140 104 110 103 91 86 78 73 69 66
202 194 188 185 197 205 208 209 210 198 206 227 230 244 243 245 225 232 246 256 246 239 203 182 153 137 126 101 80 81 74 74 71
199 198 190 188 193 206 216 224 215 224 216 231 251 244 249 246 242 243 244 259 252 236 226 211 191 169 144 129 111 94 91 87 76
207 205 205 207 208 222 230 237 240 243 236 233 246 254 255 236 244 244 255 263 257 240 244 243 219 189 170 153 146 125 107 96 81
211 211 214 217 225 231 236 239 242 246 239 221 235 247 251 203 243 246 250 253 248 240 238 244 239 215 198 188 176 159 129 110 89
213 215 217 221 226 228 235 236 237 235 228 224 225 238 271 263 203 215 239 252 256 243 235 239 238 223 215 210 198 187 172 158 125
217 216 215 213 215 213 224 228 219 222 227 214 221 236 257 260 267 247 257 244 224 244 193 242 236 238 225 218 211 202 188 193 186